Location: Brabourne
(51.1333°N, 1.0000°E)
Time: 20:52:40
(UTC+00:00)

Cosmos 1633 - Pass Details

Date: 20 June 2021
Orbit: 461 x 476 km, 82.5° (Epoch: 02 August)

Event Time Altitude Azimuth Distance (km) Brightness Sun altitude
Exits shadow 02:27:35 11° 223° (SW) 1,527 4.4 -8.5°
Maximum altitude 02:30:34 33° 287° (WNW) 809 3.5 -8.2°
Drops below altitude 10° 02:33:49 10° 353° (N) 1,629 6.0 -7.9°
Sets 02:36:03 0° 4° (N) 2,513 7.3 -7.7°
